weather.gov     
National Weather Service

Terminal Aerodrome Forecast
NWS Homepage
This page is being discontinued on March 12, 2014.
The same data is available at this site. Please update your bookmarks.
Thank you, and we apologize for the inconvenience.
Please send an email to SR-SRH.Webmaster@noaa.gov with any concerns.


Current Version
Previous Version:    01  02  03  04  05  06  07  08  09  10  11  12  13  14  15  16  17  18  19  20  21  22  23  24  25  26  27  28  29  
[Printable]
573
FTUS45 KTFX 210500
TAFHLN
TAF
KHLN 210532Z 2106/2206 VRB06KT P6SM OVC060
     FM210800 20007KT P6SM VCSH SCT030 OVC050
      TEMPO 2110/2114 -SHRASN BKN030
     FM211700 26012G20KT P6SM VCSH BKN050
     FM212000 28018G26KT P6SM SCT050 BKN090=


U.S. Dept. of Commerce
NOAA National Weather Service
1325 East West Highway
Silver Spring, MD 20910
E-mail: w-nws.webmaster@noaa.gov
Page last modified: May 16, 2007
NATIONAL WEATHER SERVICE: for Safety, for Work, for Fun - FOR LIFE